Weather History for Dunkirk, NY

Change the Weather History Date:

Tuesday, July 16, 2013

  Actual Average Record
Temperature  
Mean Temperature 78 °F -  
Max Temperature 87 °F 80 °F 91 °F (1955)
Min Temperature 69 °F 61 °F 49 °F (1926)
Cooling Degree Days 12    
Growing Degree Days 28 (Base 50)    
Moisture  
Dew Point 70 °F    
Average Humidity 77    
Maximum Humidity 93    
Minimum Humidity 59    
Precipitation  
Precipitation 0.00 in - - ()
Sea Level Pressure  
Sea Level Pressure 30.27 in    
Wind  
Wind Speed 10 mph (WSW)    
Max Wind Speed 14 mph    
Max Gust Speed -    
Visibility 10 miles    
Events      
Averages and records for this station are not official NWS values.
T = Trace of Precipitation, MM = Missing Value Source: NWS Daily Summary

Daily Weather History Graph

Daily Weather History Graph

Search for Another Location

Airport:

Trip Planner

Search our weather history database for the weather conditions in past years. The results will help you decide how hot, cold, wet, or windy it might be!

Date:

Astronomy

Jul. 16, 2013 Rise Set
Actual Time 5:54 AM EDT 8:51 PM EDT
Civil Twilight 5:20 AM EDT 9:25 PM EDT
Nautical Twilight 4:37 AM EDT 10:07 PM EDT
Astronomical Twilight 3:47 AM EDT 10:57 PM EDT
Moon 2:28 PM EDT (7/16) 12:26 AM EDT (7/16)
Length of Visible Light 16h 04m
Length of Day
14h 57m
First Quarter, 56% of the Moon is Illuminated
Jul 16
First Quarter
Jul 22
Full
Jul 29
Last Quarter
Aug 6
New
Aug 14
First Quarter

Hourly Weather History & Observations

Time (EDT) Temp. Heat Index Dew Point Humidity Pressure Visibility Wind Dir Wind Speed Gust Speed Precip Events Conditions
12:53 AM 72.0 °F - 68.0 °F 87% 30.27 in 10.0 mi SSW 6.9 mph - N/A   Clear
1:53 AM 71.1 °F - 66.9 °F 87% 30.27 in 10.0 mi SSW 9.2 mph - N/A   Clear
2:53 AM 69.1 °F - 66.9 °F 93% 30.27 in 10.0 mi SSW 10.4 mph - N/A   Clear
3:53 AM 69.1 °F - 66.0 °F 90% 30.27 in 10.0 mi SSW 8.1 mph - N/A   Clear
4:53 AM 69.1 °F - 66.0 °F 90% 30.27 in 10.0 mi SSW 4.6 mph - N/A   Clear
5:53 AM 69.1 °F - 66.0 °F 90% 30.29 in 10.0 mi SSW 5.8 mph - N/A   Clear
6:53 AM 72.0 °F - 68.0 °F 87% 30.30 in 10.0 mi SSW 8.1 mph - N/A   Clear
7:53 AM 77.0 °F - 70.0 °F 79% 30.30 in 10.0 mi SSW 11.5 mph - N/A   Clear
8:53 AM 81.0 °F 84.4 °F 70.0 °F 69% 30.30 in 10.0 mi SSW 9.2 mph - N/A   Clear
9:53 AM 82.9 °F 87.5 °F 71.1 °F 67% 30.31 in 10.0 mi WNW 13.8 mph - N/A   Clear
10:53 AM 82.9 °F 87.5 °F 71.1 °F 67% 30.30 in 10.0 mi West 13.8 mph - N/A   Clear
11:53 AM 82.9 °F 88.0 °F 72.0 °F 69% 30.30 in 10.0 mi WNW 13.8 mph - N/A   Clear
12:53 PM 84.0 °F 89.6 °F 72.0 °F 67% 30.29 in 10.0 mi WNW 13.8 mph - N/A   Clear
1:53 PM 84.0 °F 91.2 °F 73.9 °F 72% 30.28 in 10.0 mi WNW 12.7 mph - N/A   Clear
2:53 PM 84.9 °F 90.1 °F 71.1 °F 63% 30.27 in 10.0 mi West 13.8 mph - N/A   Clear
3:53 PM 84.9 °F 90.1 °F 71.1 °F 63% 30.26 in 10.0 mi WNW 12.7 mph - N/A   Clear
4:53 PM 86.0 °F 90.7 °F 70.0 °F 59% 30.25 in 10.0 mi West 12.7 mph - N/A   Clear
5:53 PM 86.0 °F 91.5 °F 71.1 °F 61% 30.24 in 10.0 mi West 12.7 mph - N/A   Clear
6:53 PM 84.9 °F 89.4 °F 70.0 °F 61% 30.22 in 10.0 mi WSW 4.6 mph - N/A   Clear
7:53 PM 82.9 °F 88.8 °F 73.0 °F 72% 30.24 in 10.0 mi West 11.5 mph - N/A   Clear
8:53 PM 80.1 °F 83.8 °F 72.0 °F 76% 30.24 in 10.0 mi WSW 5.8 mph - N/A   Clear
9:53 PM 75.9 °F - 73.0 °F 91% 30.25 in 10.0 mi SSW 6.9 mph - N/A   Clear
10:53 PM 75.9 °F - 73.0 °F 91% 30.25 in 10.0 mi SSW 13.8 mph - N/A   Clear
11:53 PM 75.0 °F - 71.1 °F 87% 30.25 in 10.0 mi SSW 12.7 mph - N/A   Clear